This demonstration page uses our WeatherBlox Daily Observations layout. Learn more.

Left ArrowRight Arrow

39.95238, -75.16362

Hourly Observations for August 4, 2016

Temp ( °F °C ) Dew Point ( °F °C ) Humidity (%) Winds ( mph kmh ) Pressure ( in mb ) Visibility ( mi km ) Precip ( " mm )
12:54 am 00:54 Clear 69 20.6 61 16.1 76 76 E 3 6 30.15 1021 10 16 0.00 0.00
1:54 am 01:54 Clear 69 20.6 60 15.6 73 73 Calm 30.15 1021 10 16 0.00 0.00
2:54 am 02:54 Clear 68 20 61 16.1 78 78 NNE 3 6 30.14 1021 10 16 0.00 0.00
3:54 am 03:54 Clear 68 20 61 16.1 78 78 NNW 3 6 30.14 1021 10 16 0.00 0.00
4:54 am 04:54 Clear 68 20 61 16.1 78 78 Calm 30.14 1021 10 16 0.00 0.00
5:54 am 05:54 Clear 67 19.4 62 16.7 84 84 NNE 5 7 30.14 1021 10 16 0.00 0.00
6:54 am 06:54 Mostly Sunny 68 20 63 17.2 84 84 NE 6 9 30.15 1021 10 16 0.00 0.00
7:54 am 07:54 Mostly Sunny 72 22.2 64 17.8 76 76 NE 7 11 30.16 1022 10 16 0.00 0.00
8:54 am 08:54 Mostly Sunny 74 23.3 65 18.3 74 74 E 6 9 30.16 1022 10 16 0.00 0.00
9:54 am 09:54 Mostly Sunny 77 25 65 18.3 66 66 E 6 9 30.16 1021 10 16 0.00 0.00
10:54 am 10:54 Partly Cloudy 79 26.1 62 16.7 56 56 SE 6 9 30.16 1021 10 16 0.00 0.00
11:54 am 11:54 Partly Cloudy 81 27.2 61 16.1 51 51 E 8 13 30.15 1021 10 16 0.00 0.00
12:54 pm 12:54 Mostly Cloudy 82 27.8 61 16.1 49 49 S 6 9 30.14 1021 10 16 0.00 0.00
1:54 pm 13:54 Partly Cloudy 83 28.3 59 15 44 44 VRB 3 6 30.14 1021 10 16 0.00 0.00
2:54 pm 14:54 Partly Cloudy 85 29.4 59 15 42 42 VRB 3 6 30.12 1020 10 16 0.00 0.00
3:54 pm 15:54 Partly Cloudy 83 28.3 59 15 44 44 SW 5 7 30.11 1020 10 16 0.00 0.00
4:54 pm 16:54 Mostly Cloudy 82 27.8 59 15 46 46 SSW 3 6 30.10 1019 10 16 0.00 0.00
5:54 pm 17:54 Partly Cloudy 83 28.3 64 17.8 53 53 S 9 15 30.09 1019 10 16 0.00 0.00
6:54 pm 18:54 Mostly Sunny 81 27.2 63 17.2 54 54 SSW 10 17 30.08 1019 10 16 0.00 0.00
7:54 pm 19:54 Partly Cloudy 80 26.7 63 17.2 56 56 SSW 8 13 30.08 1019 10 16 0.00 0.00
8:54 pm 20:54 Partly Cloudy 77 25 64 17.8 64 64 S 8 13 30.09 1019 10 16 0.00 0.00
9:54 pm 21:54 Mostly Clear 74 23.3 63 17.2 69 69 SSE 6 9 30.09 1019 10 16 0.00 0.00
10:54 pm 22:54 Clear 72 22.2 61 16.1 68 68 S 6 9 30.10 1019 10 16 0.00 0.00
11:54 pm 23:54 Clear 71 21.7 60 15.6 68 68 SSE 6 9 30.10 1019 10 16 0.00 0.00

Powered by AerisWeather